Terminal Aerodrome Forecast
Issued by NWS

Home | Current Version | Previous Version | Text Only | Print | Product List | Glossary On
Versions: 1 2 3 4 5 6 7 8 9 10 11 12 13 14 15 16 17 18 19 20 21 22 23 24 25 26 27 28 29 30 31 32 33 34 35 36 37 38 39 40 41 42 43 44 45 46 47 48 49 50
000
FTUS43 KMKX 262323
TAFENW
TAF
KENW 262323Z 2700/2724 17006KT 5SM -SN SCT013 BKN020 OVC040
     FM270300 15005KT 3SM BR OVC020
     FM270700 11004KT P6SM OVC020
     FM271200 05005KT P6SM OVC025
     FM271700 05007KT P6SM BKN035=

USA.gov is the U.S. government's official web portal to all federal, state and local government web resources and services.